sat.trackr.live / text

‹ back to catalog

STARLINK-4106

NORAD 53145 · 2022-083P

PAYLOAD ACTIVE UNKNOWN

§ Identity

Operator
Country
US
Launch date
2022-07-17
Launch site
AFETR
Launch vehicle
Mass (kg)
RCS (m²)

Purposes: comms

External: N2YO · Heavens-Above · Gunter

§ Orbital elements

Epoch: 2026-09-19T22:00:56.795328Z

Period
94.01 min
Inclination
53.1608°
Eccentricity
0.0001001
Mean motion
15.31703759 rev/d
Perigee alt
470.0 km
Apogee alt
471.4 km
Semi-major
6,848.9 km
B*
2.8723e-5
RAAN
9.6392°
Arg perigee
73.1073°
Mean anomaly
287.0038°
Rev number
23,071

§ Raw data

STARLINK-41061 53145U 22083P   26262.91732402  .00000527  00000+0  28723-4 0  99982 53145  53.1608   9.6392 0001001  73.1073 287.0038 15.31703759230717

JSON: /api/v1/satellites/53145 · /tle

For live sub-satellite position, see the globe view (requires WebGL).

§ Visibility from observer

Set your observer location to see the next 7 days of passes ≥ 10°. The values pass through the URL so the page stays shareable.

No JS? Fill the form by hand. The geolocation button needs JavaScript.